,,PA_Meas_PMT16A,,PR_Meas_QMR101_102,,RH_Meas_QMH101,,SR_Meas_QMS101,,TA_Meas_QMH101,,GenWind,,GenWind,
time,status,PA,status,PR,status,RH,status,SR,status,TA,status,DirAvg,status,SpdAvg,
2013-05-23, 00:00:05,VALID,918.752,VALID,0,VALID,97.1452,VALID,0,VALID,20.8145,VALID,56,VALID,0,
2013-05-23, 00:01:05,VALID,918.752,VALID,0,VALID,97.1223,VALID,0,VALID,20.8145,VALID,56,VALID,0,
2013-05-23, 00:02:05,VALID,918.745,VALID,0,VALID,97.1376,VALID,0,VALID,20.8145,VALID,56,VALID,0,
2013-05-23, 00:03:05,VALID,918.716,VALID,0,VALID,97.1376,VALID,0,VALID,20.795,VALID,56,VALID,0,
2013-05-23, 00:04:05,VALID,918.693,VALID,0,VALID,97.1452,VALID,0,VALID,20.795,VALID,56,VALID,0,
2013-05-23, 00:05:05,VALID,918.71,VALID,0,VALID,97.1528,VALID,0,VALID,20.7739,VALID,56,VALID,0,
2013-05-23, 00:06:05,VALID,918.683,VALID,0,VALID,97.1299,VALID,0,VALID,20.8145,VALID,56,VALID,0,
2013-05-23, 00:07:05,VALID,918.701,VALID,0,VALID,97.1376,VALID,0,VALID,20.834,VALID,56,VALID,0,
2013-05-23, 00:08:05,VALID,918.646,VALID,0,VALID,97.1299,VALID,0,VALID,20.8535,VALID,56,VALID,0,
2013-05-23, 00:09:05,VALID,918.651,VALID,0,VALID,97.1452,VALID,0,VALID,20.912,VALID,56,VALID,0,
2013-05-23, 00:10:05,VALID,918.597,VALID,0,VALID,97.1223,VALID,0,VALID,20.8925,VALID,56,VALID,0,
2013-05-23, 00:11:05,VALID,918.605,VALID,0,VALID,97.1452,VALID,0,VALID,20.912,VALID,56,VALID,0,
2013-05-23, 00:12:05,VALID,918.581,VALID,0,VALID,97.1223,VALID,0,VALID,20.873,VALID,56,VALID,0,
2013-05-23, 00:13:05,VALID,918.554,VALID,0,VALID,97.1223,VALID,0,VALID,20.8519,VALID,56,VALID,0,
2013-05-23, 00:14:05,VALID,918.556,VALID,0,VALID,97.1299,VALID,0,VALID,20.8535,VALID,56,VALID,0,
2013-05-23, 00:15:05,VALID,918.519,VALID,0,VALID,97.1528,VALID,0,VALID,20.795,VALID,56,VALID,0,
2013-05-23, 00:16:05,VALID,918.502,VALID,0,VALID,97.1452,VALID,0,VALID,20.756,VALID,56,VALID,0,
2013-05-23, 00:17:05,VALID,918.524,VALID,0,VALID,97.1223,VALID,0,VALID,20.795,VALID,56,VALID,0,
2013-05-23, 00:18:05,VALID,918.487,VALID,0,VALID,97.1223,VALID,0.107441,VALID,20.795,VALID,56,VALID,0,
2013-05-23, 00:19:05,VALID,918.501,VALID,0,VALID,97.1299,VALID,0,VALID,20.7739,VALID,56,VALID,0,
2013-05-23, 00:20:05,VALID,918.528,VALID,0,VALID,97.1223,VALID,0,VALID,20.7755,VALID,56,VALID,0,
2013-05-23, 00:21:05,VALID,918.531,VALID,0,VALID,97.1452,VALID,0,VALID,20.756,VALID,56,VALID,0,
2013-05-23, 00:22:05,VALID,918.529,VALID,0,VALID,97.1376,VALID,0,VALID,20.756,VALID,56,VALID,0,
2013-05-23, 00:23:05,VALID,918.588,VALID,0,VALID,97.1528,VALID,0,VALID,20.756,VALID,56,VALID,0,
2013-05-23, 00:24:05,VALID,918.554,VALID,0,VALID,97.1528,VALID,0,VALID,20.756,VALID,56,VALID,0,
2013-05-23, 00:25:05,VALID,918.561,VALID,0,VALID,97.1452,VALID,0,VALID,20.7771,VALID,56,VALID,0,
2013-05-23, 00:26:05,VALID,918.604,VALID,0,VALID,97.1376,VALID,0,VALID,20.717,VALID,56,VALID,0,
2013-05-23, 00:27:05,VALID,918.586,VALID,0,VALID,97.1376,VALID,0,VALID,20.717,VALID,56,VALID,0,
2013-05-23, 00:28:05,VALID,918.567,VALID,0,VALID,97.1376,VALID,0,VALID,20.7365,VALID,56,VALID,0,
2013-05-23, 00:29:05,VALID,918.574,VALID,0,VALID,97.1604,VALID,0,VALID,20.756,VALID,56,VALID,0,
2013-05-23, 00:30:05,VALID,918.572,VALID,0,VALID,97.1528,VALID,0,VALID,20.7349,VALID,56,VALID,0,
2013-05-23, 00:31:05,VALID,918.566,VALID,0,VALID,97.1604,VALID,0,VALID,20.7349,VALID,56,VALID,0,
2013-05-23, 00:32:05,VALID,918.537,VALID,0,VALID,97.1452,VALID,0,VALID,20.7544,VALID,56,VALID,0,
2013-05-23, 00:33:05,VALID,918.547,VALID,0,VALID,97.1452,VALID,0,VALID,20.7755,VALID,56,VALID,0,
2013-05-23, 00:34:05,VALID,918.548,VALID,0,VALID,97.1376,VALID,0,VALID,20.756,VALID,56,VALID,0,
2013-05-23, 00:35:05,VALID,918.505,VALID,0,VALID,97.1376,VALID,0,VALID,20.7365,VALID,56,VALID,0,
2013-05-23, 00:36:05,VALID,918.502,VALID,0,VALID,97.1528,VALID,0,VALID,20.7154,VALID,56,VALID,0,
2013-05-23, 00:37:05,VALID,918.507,VALID,0,VALID,97.1452,VALID,0,VALID,20.756,VALID,56,VALID,0,
2013-05-23, 00:38:05,VALID,918.508,VALID,0,VALID,97.1681,VALID,0,VALID,20.7739,VALID,56,VALID,0,
2013-05-23, 00:39:05,VALID,918.486,VALID,0,VALID,97.1528,VALID,0,VALID,20.8145,VALID,56,VALID,0,
2013-05-23, 00:40:05,VALID,918.486,VALID,0,VALID,97.1604,VALID,0.107441,VALID,20.8129,VALID,56,VALID,0,
2013-05-23, 00:41:05,VALID,918.442,VALID,0,VALID,97.1452,VALID,0,VALID,20.834,VALID,56,VALID,0,
2013-05-23, 00:42:05,VALID,918.462,VALID,0,VALID,97.1528,VALID,0,VALID,20.873,VALID,56,VALID,0,
2013-05-23, 00:43:05,VALID,918.426,VALID,0,VALID,97.1376,VALID,0,VALID,20.912,VALID,56,VALID,0,
2013-05-23, 00:44:05,VALID,918.412,VALID,0,VALID,97.1299,VALID,0,VALID,20.912,VALID,56,VALID,0,
2013-05-23, 00:45:05,VALID,918.428,VALID,0,VALID,97.1528,VALID,0,VALID,20.8925,VALID,56,VALID,0,
2013-05-23, 00:46:05,VALID,918.394,VALID,0,VALID,97.1528,VALID,0,VALID,20.873,VALID,56,VALID,0,
2013-05-23, 00:47:05,VALID,918.368,VALID,0,VALID,97.1833,VALID,0,VALID,20.8925,VALID,56,VALID,0,
2013-05-23, 00:48:05,VALID,918.361,VALID,0,VALID,97.1528,VALID,0,VALID,20.8925,VALID,56,VALID,0,
2013-05-23, 00:49:05,VALID,918.353,VALID,0,VALID,97.1452,VALID,0,VALID,20.8925,VALID,56,VALID,0,
2013-05-23, 00:50:05,VALID,918.343,VALID,0,VALID,97.1528,VALID,0,VALID,20.912,VALID,56,VALID,0,
2013-05-23, 00:51:05,VALID,918.367,VALID,0,VALID,97.1528,VALID,0,VALID,20.9331,VALID,56,VALID,0,
2013-05-23, 00:52:05,VALID,918.349,VALID,0,VALID,97.1299,VALID,0,VALID,20.93,VALID,56,VALID,0,
2013-05-23, 00:53:05,VALID,918.32,VALID,0,VALID,97.1376,VALID,0,VALID,20.9316,VALID,56,VALID,0,
2013-05-23, 00:54:05,VALID,918.333,VALID,0,VALID,97.1528,VALID,0,VALID,20.9136,VALID,56,VALID,0,
2013-05-23, 00:55:05,VALID,918.298,VALID,0,VALID,97.1299,VALID,0,VALID,20.873,VALID,56,VALID,0,
2013-05-23, 00:56:05,VALID,918.307,VALID,0,VALID,97.1299,VALID,0,VALID,20.8925,VALID,56,VALID,0,
2013-05-23, 00:57:05,VALID,918.264,VALID,0,VALID,97.1299,VALID,0,VALID,20.8925,VALID,56,VALID,0,
2013-05-23, 00:58:05,VALID,918.264,VALID,0,VALID,97.1528,VALID,0,VALID,20.8925,VALID,56,VALID,0,
2013-05-23, 00:59:05,VALID,918.231,VALID,0,VALID,97.1452,VALID,0,VALID,20.8925,VALID,56,VALID,0,
2013-05-23, 01:00:05,VALID,918.215,VALID,0,VALID,97.1452,VALID,0,VALID,20.8925,VALID,56,VALID,0,
2013-05-23, 01:01:05,VALID,918.201,VALID,0,VALID,97.1299,VALID,0,VALID,20.873,VALID,56,VALID,0,
2013-05-23, 01:02:05,VALID,918.191,VALID,0,VALID,97.1452,VALID,0,VALID,20.8925,VALID,56,VALID,0,
2013-05-23, 01:03:05,VALID,918.19,VALID,0,VALID,97.1223,VALID,0,VALID,20.9316,VALID,56,VALID,0,
2013-05-23, 01:04:05,VALID,918.164,VALID,0,VALID,97.1376,VALID,0,VALID,20.912,VALID,56,VALID,0,
2013-05-23, 01:05:05,VALID,918.141,VALID,0,VALID,97.1528,VALID,0,VALID,20.8925,VALID,56,VALID,0,
2013-05-23, 01:06:05,VALID,918.142,VALID,0,VALID,97.1376,VALID,0.107441,VALID,20.8925,VALID,56,VALID,0,
2013-05-23, 01:07:05,VALID,918.159,VALID,0,VALID,97.1376,VALID,0,VALID,20.873,VALID,56,VALID,0,
2013-05-23, 01:08:05,VALID,918.13,VALID,0,VALID,97.1528,VALID,0,VALID,20.8925,VALID,56,VALID,0,
2013-05-23, 01:09:05,VALID,918.179,VALID,0,VALID,97.1452,VALID,0,VALID,20.912,VALID,56,VALID,0,
2013-05-23, 01:10:05,VALID,918.139,VALID,0,VALID,97.1528,VALID,0,VALID,20.8925,VALID,56,VALID,0,
2013-05-23, 01:11:05,VALID,918.141,VALID,0,VALID,97.1376,VALID,0,VALID,20.8925,VALID,56,VALID,0,
2013-05-23, 01:12:05,VALID,918.141,VALID,0,VALID,97.1528,VALID,0,VALID,20.912,VALID,56,VALID,0,
2013-05-23, 01:13:05,VALID,918.138,VALID,0,VALID,97.1452,VALID,0,VALID,20.891,VALID,56,VALID,0,
2013-05-23, 01:14:05,VALID,918.148,VALID,0,VALID,97.1604,VALID,0,VALID,20.8925,VALID,56,VALID,0,
2013-05-23, 01:15:05,VALID,918.137,VALID,0,VALID,97.1604,VALID,0,VALID,20.912,VALID,56,VALID,0,
2013-05-23, 01:16:05,VALID,918.113,VALID,0,VALID,97.1223,VALID,0,VALID,20.912,VALID,56,VALID,0,
2013-05-23, 01:17:05,VALID,918.123,VALID,0,VALID,97.1452,VALID,0,VALID,20.873,VALID,56,VALID,0,
2013-05-23, 01:18:05,VALID,918.116,VALID,0,VALID,97.1757,VALID,0,VALID,20.873,VALID,56,VALID,0,
2013-05-23, 01:19:05,VALID,918.113,VALID,0,VALID,97.1452,VALID,0,VALID,20.8535,VALID,56,VALID,0,
2013-05-23, 01:20:05,VALID,918.124,VALID,0,VALID,97.1604,VALID,0,VALID,20.8535,VALID,56,VALID,0,
2013-05-23, 01:21:05,VALID,918.111,VALID,0,VALID,97.1528,VALID,0,VALID,20.834,VALID,56,VALID,0,
2013-05-23, 01:22:05,VALID,918.125,VALID,0,VALID,97.1528,VALID,0,VALID,20.8535,VALID,56,VALID,0,
2013-05-23, 01:23:05,VALID,918.115,VALID,0,VALID,97.1604,VALID,0,VALID,20.8535,VALID,56,VALID,0,
2013-05-23, 01:24:05,VALID,918.107,VALID,0,VALID,97.1299,VALID,0,VALID,20.8535,VALID,56,VALID,0,
2013-05-23, 01:25:05,VALID,918.073,VALID,0,VALID,97.1452,VALID,0,VALID,20.834,VALID,56,VALID,0,
2013-05-23, 01:26:05,VALID,918.099,VALID,0,VALID,97.1681,VALID,0,VALID,20.7934,VALID,56,VALID,0,
2013-05-23, 01:27:05,VALID,918.09,VALID,0,VALID,97.1452,VALID,0,VALID,20.7755,VALID,56,VALID,0,
2013-05-23, 01:28:05,VALID,918.112,VALID,0,VALID,97.1376,VALID,0,VALID,20.756,VALID,56,VALID,0,
2013-05-23, 01:29:05,VALID,918.116,VALID,0,VALID,97.1528,VALID,0,VALID,20.7755,VALID,56,VALID,0,
2013-05-23, 01:30:05,VALID,918.087,VALID,0,VALID,97.1604,VALID,0,VALID,20.756,VALID,56,VALID,0,
2013-05-23, 01:31:05,VALID,918.135,VALID,0,VALID,97.1528,VALID,0,VALID,20.7771,VALID,56,VALID,0,
2013-05-23, 01:32:05,VALID,918.132,VALID,0,VALID,97.1452,VALID,0,VALID,20.756,VALID,56,VALID,0,
2013-05-23, 01:33:05,VALID,918.125,VALID,0,VALID,97.1681,VALID,0,VALID,20.717,VALID,56,VALID,0,
2013-05-23, 01:34:05,VALID,918.09,VALID,0,VALID,97.1528,VALID,0,VALID,20.717,VALID,56,VALID,0,
2013-05-23, 01:35:05,VALID,918.11,VALID,0,VALID,97.1833,VALID,0,VALID,20.717,VALID,56,VALID,0,
2013-05-23, 01:36:05,VALID,918.107,VALID,0,VALID,97.1604,VALID,0,VALID,20.717,VALID,56,VALID,0,
2013-05-23, 01:37:05,VALID,918.096,VALID,0,VALID,97.1833,VALID,0,VALID,20.7365,VALID,56,VALID,0,
2013-05-23, 01:38:05,VALID,918.106,VALID,0,VALID,97.1681,VALID,0,VALID,20.7755,VALID,56,VALID,0,
2013-05-23, 01:39:05,VALID,918.085,VALID,0,VALID,97.1376,VALID,0,VALID,20.7755,VALID,56,VALID,0,
2013-05-23, 01:40:05,VALID,918.097,VALID,0,VALID,97.1604,VALID,0,VALID,20.7755,VALID,56,VALID,0,
2013-05-23, 01:41:05,VALID,918.059,VALID,0,VALID,97.1604,VALID,0,VALID,20.7544,VALID,56,VALID,0,
2013-05-23, 01:42:05,VALID,918.06,VALID,0,VALID,97.1681,VALID,0,VALID,20.756,VALID,56,VALID,0,
2013-05-23, 01:43:05,VALID,918.011,VALID,0,VALID,97.1528,VALID,0,VALID,20.756,VALID,56,VALID,0,
2013-05-23, 01:44:05,VALID,918.011,VALID,0,VALID,97.1604,VALID,0,VALID,20.7771,VALID,56,VALID,0,
2013-05-23, 01:45:05,VALID,918.007,VALID,0,VALID,97.1376,VALID,0,VALID,20.7349,VALID,56,VALID,0,
2013-05-23, 01:46:05,VALID,918.006,VALID,0,VALID,97.1528,VALID,0,VALID,20.756,VALID,56,VALID,0,
2013-05-23, 01:47:05,VALID,917.952,VALID,0,VALID,97.1604,VALID,0,VALID,20.7365,VALID,56,VALID,0,
2013-05-23, 01:48:05,VALID,917.937,VALID,0,VALID,97.1681,VALID,0,VALID,20.756,VALID,56,VALID,0,
2013-05-23, 01:49:05,VALID,917.922,VALID,0,VALID,97.1528,VALID,0,VALID,20.756,VALID,56,VALID,0,
2013-05-23, 01:50:05,VALID,917.901,VALID,0,VALID,97.1604,VALID,0,VALID,20.756,VALID,56,VALID,0,
2013-05-23, 01:51:05,VALID,917.882,VALID,0,VALID,97.1681,VALID,0,VALID,20.7755,VALID,56,VALID,0,
2013-05-23, 01:52:05,VALID,917.858,VALID,0,VALID,97.1528,VALID,0,VALID,20.756,VALID,56,VALID,0,
2013-05-23, 01:53:05,VALID,917.832,VALID,0,VALID,97.1299,VALID,0,VALID,20.756,VALID,56,VALID,0,
2013-05-23, 01:54:05,VALID,917.832,VALID,0,VALID,97.1528,VALID,0,VALID,20.7755,VALID,57,VALID,0,
2013-05-23, 01:55:05,VALID,917.814,VALID,0,VALID,97.1604,VALID,0,VALID,20.7755,VALID,83,VALID,0,
2013-05-23, 01:56:05,VALID,917.822,VALID,0,VALID,97.1528,VALID,0,VALID,20.756,VALID,83,VALID,0,
2013-05-23, 01:57:05,VALID,917.829,VALID,0,VALID,97.1757,VALID,0,VALID,20.7755,VALID,83,VALID,0,
2013-05-23, 01:58:05,VALID,917.8,VALID,0,VALID,97.1452,VALID,0,VALID,20.756,VALID,83,VALID,0,
2013-05-23, 01:59:05,VALID,917.814,VALID,0,VALID,97.1376,VALID,0,VALID,20.7365,VALID,98,VALID,0,
2013-05-23, 02:00:05,VALID,917.822,VALID,0,VALID,97.1452,VALID,0,VALID,20.7365,VALID,116,VALID,0,
2013-05-23, 02:01:05,VALID,917.808,VALID,0,VALID,97.1604,VALID,0,VALID,20.7365,VALID,116,VALID,0,
2013-05-23, 02:02:05,VALID,917.809,VALID,0,VALID,97.1604,VALID,0,VALID,20.7365,VALID,116,VALID,0,
2013-05-23, 02:03:05,VALID,917.828,VALID,0,VALID,97.1528,VALID,0,VALID,20.717,VALID,116,VALID,0,
2013-05-23, 02:04:05,VALID,917.811,VALID,0,VALID,97.1604,VALID,0,VALID,20.717,VALID,116,VALID,0,
2013-05-23, 02:05:05,VALID,917.787,VALID,0,VALID,97.1681,VALID,0,VALID,20.6975,VALID,116,VALID,0,
2013-05-23, 02:06:05,VALID,917.826,VALID,0,VALID,97.1604,VALID,0,VALID,20.6585,VALID,116,VALID,0,
2013-05-23, 02:07:05,VALID,917.794,VALID,0,VALID,97.1528,VALID,0,VALID,20.678,VALID,116,VALID,0,
2013-05-23, 02:08:05,VALID,917.827,VALID,0,VALID,97.1604,VALID,0,VALID,20.6585,VALID,116,VALID,0,
2013-05-23, 02:09:05,VALID,917.747,VALID,0,VALID,97.1604,VALID,0,VALID,20.639,VALID,116,VALID,0,
2013-05-23, 02:10:05,VALID,917.735,VALID,0,VALID,97.1833,VALID,0,VALID,20.6585,VALID,116,VALID,0,
2013-05-23, 02:11:05,VALID,917.707,VALID,0,VALID,97.1681,VALID,0,VALID,20.66,VALID,116,VALID,0,
2013-05-23, 02:12:05,VALID,917.705,VALID,0,VALID,97.1833,VALID,0,VALID,20.66,VALID,116,VALID,0,
2013-05-23, 02:13:05,VALID,917.672,VALID,0,VALID,97.1833,VALID,0,VALID,20.5999,VALID,116,VALID,0,
2013-05-23, 02:14:05,VALID,917.628,VALID,0,VALID,97.1681,VALID,0,VALID,20.621,VALID,116,VALID,0,
2013-05-23, 02:15:05,VALID,917.601,VALID,0,VALID,97.1986,VALID,0,VALID,20.5609,VALID,116,VALID,0,
2013-05-23, 02:16:05,VALID,917.599,VALID,0,VALID,97.1986,VALID,0,VALID,20.543,VALID,116,VALID,0,
2013-05-23, 02:17:05,VALID,917.557,VALID,0,VALID,97.1757,VALID,0,VALID,20.5219,VALID,116,VALID,0,
2013-05-23, 02:18:05,VALID,917.544,VALID,0,VALID,97.1833,VALID,0,VALID,20.5024,VALID,116,VALID,0,
2013-05-23, 02:19:05,VALID,917.508,VALID,0,VALID,97.1909,VALID,0,VALID,20.5024,VALID,116,VALID,0,
2013-05-23, 02:20:05,VALID,917.489,VALID,0,VALID,97.1909,VALID,0,VALID,20.5219,VALID,116,VALID,0,
2013-05-23, 02:21:05,VALID,917.528,VALID,0,VALID,97.1833,VALID,0,VALID,20.5219,VALID,116,VALID,0,
2013-05-23, 02:22:05,VALID,917.525,VALID,0,VALID,97.1909,VALID,0,VALID,20.5609,VALID,116,VALID,0,
2013-05-23, 02:23:05,VALID,917.506,VALID,0,VALID,97.1909,VALID,0,VALID,20.5999,VALID,116,VALID,0,
2013-05-23, 02:24:05,VALID,917.477,VALID,0,VALID,97.1909,VALID,0,VALID,20.639,VALID,116,VALID,0,
2013-05-23, 02:25:05,VALID,917.49,VALID,0,VALID,97.1757,VALID,0,VALID,20.639,VALID,116,VALID,0,
2013-05-23, 02:26:05,VALID,917.483,VALID,0,VALID,97.1986,VALID,0,VALID,20.6585,VALID,116,VALID,0,
2013-05-23, 02:27:05,VALID,917.468,VALID,0,VALID,97.1986,VALID,0,VALID,20.678,VALID,116,VALID,0,
2013-05-23, 02:28:04,VALID,917.477,VALID,0,VALID,97.1757,VALID,0,VALID,20.717,VALID,116,VALID,0,
2013-05-23, 02:29:04,VALID,917.456,VALID,0,VALID,97.1681,VALID,0,VALID,20.7365,VALID,116,VALID,0,
2013-05-23, 02:30:04,VALID,917.475,VALID,0,VALID,97.1757,VALID,0,VALID,20.7755,VALID,116,VALID,0,
2013-05-23, 02:31:04,VALID,917.463,VALID,0,VALID,97.1833,VALID,0,VALID,20.7755,VALID,116,VALID,0,
2013-05-23, 02:32:04,VALID,917.441,VALID,0,VALID,97.1757,VALID,0,VALID,20.8161,VALID,116,VALID,0,
2013-05-23, 02:33:04,VALID,917.421,VALID,0,VALID,97.1528,VALID,0,VALID,20.8145,VALID,116,VALID,0,
2013-05-23, 02:34:04,VALID,917.416,VALID,0,VALID,97.1604,VALID,0,VALID,20.8535,VALID,116,VALID,0,
2013-05-23, 02:35:04,VALID,917.373,VALID,0,VALID,97.1757,VALID,0,VALID,20.8535,VALID,116,VALID,0,
2013-05-23, 02:36:04,VALID,917.368,VALID,0,VALID,97.1909,VALID,0,VALID,20.873,VALID,116,VALID,0,
2013-05-23, 02:37:04,VALID,917.351,VALID,0,VALID,97.1528,VALID,0,VALID,20.8535,VALID,116,VALID,0,
2013-05-23, 02:38:04,VALID,917.308,VALID,0,VALID,97.1833,VALID,0,VALID,20.8941,VALID,116,VALID,0,
2013-05-23, 02:39:04,VALID,917.279,VALID,0,VALID,97.1757,VALID,0,VALID,20.8925,VALID,116,VALID,0,
2013-05-23, 02:40:04,VALID,917.282,VALID,0,VALID,97.1757,VALID,0,VALID,20.9331,VALID,116,VALID,0,
2013-05-23, 02:41:04,VALID,917.295,VALID,0,VALID,97.1681,VALID,0,VALID,20.912,VALID,116,VALID,0,
2013-05-23, 02:42:04,VALID,917.266,VALID,0,VALID,97.1757,VALID,0,VALID,20.9316,VALID,116,VALID,0,
2013-05-23, 02:43:04,VALID,917.28,VALID,0,VALID,97.1604,VALID,0,VALID,20.9316,VALID,116,VALID,0,
2013-05-23, 02:44:04,VALID,917.269,VALID,0,VALID,97.1604,VALID,0,VALID,20.9316,VALID,116,VALID,0,
2013-05-23, 02:45:04,VALID,917.252,VALID,0,VALID,97.1757,VALID,0,VALID,20.9316,VALID,116,VALID,0,
2013-05-23, 02:46:04,VALID,917.281,VALID,0,VALID,97.1604,VALID,0,VALID,20.9316,VALID,116,VALID,0,
2013-05-23, 02:47:04,VALID,917.239,VALID,0,VALID,97.1528,VALID,0,VALID,20.9316,VALID,116,VALID,0,
2013-05-23, 02:48:04,VALID,917.254,VALID,0,VALID,97.1604,VALID,0,VALID,20.912,VALID,116,VALID,0,
2013-05-23, 02:49:04,VALID,917.241,VALID,0,VALID,97.1452,VALID,0,VALID,20.873,VALID,116,VALID,0,
2013-05-23, 02:50:04,VALID,917.226,VALID,0,VALID,97.1604,VALID,0,VALID,20.8925,VALID,116,VALID,0,
2013-05-23, 02:51:04,VALID,917.223,VALID,0,VALID,97.1681,VALID,0,VALID,20.8925,VALID,116,VALID,0,
2013-05-23, 02:52:04,VALID,917.194,VALID,0,VALID,97.1681,VALID,0,VALID,20.8925,VALID,116,VALID,0,
2013-05-23, 02:53:04,VALID,917.207,VALID,0,VALID,97.1604,VALID,0,VALID,20.873,VALID,116,VALID,0,
2013-05-23, 02:54:04,VALID,917.219,VALID,0,VALID,97.1681,VALID,0,VALID,20.873,VALID,116,VALID,0,
2013-05-23, 02:55:04,VALID,917.185,VALID,0,VALID,97.1757,VALID,0,VALID,20.8941,VALID,115,VALID,0,
2013-05-23, 02:56:04,VALID,917.214,VALID,0,VALID,97.1681,VALID,0,VALID,20.8535,VALID,115,VALID,0,
2013-05-23, 02:57:04,VALID,917.226,VALID,0,VALID,97.1681,VALID,0,VALID,20.873,VALID,115,VALID,0,
2013-05-23, 02:58:04,VALID,917.208,VALID,0,VALID,97.1528,VALID,0,VALID,20.8941,VALID,115,VALID,0,
2013-05-23, 02:59:04,VALID,917.229,VALID,0,VALID,97.1681,VALID,0,VALID,20.873,VALID,115,VALID,0,
2013-05-23, 03:00:04,VALID,917.198,VALID,0,VALID,97.1452,VALID,0,VALID,20.8535,VALID,116,VALID,0,
2013-05-23, 03:01:04,VALID,917.178,VALID,0,VALID,97.1681,VALID,0,VALID,20.8324,VALID,107,VALID,0,
2013-05-23, 03:02:04,VALID,917.169,VALID,0,VALID,97.1681,VALID,0,VALID,20.834,VALID,92,VALID,0,
2013-05-23, 03:03:04,VALID,917.171,VALID,0,VALID,97.1604,VALID,0,VALID,20.8145,VALID,92,VALID,0,
2013-05-23, 03:04:04,VALID,917.143,VALID,0,VALID,97.1681,VALID,0,VALID,20.795,VALID,92,VALID,0,
2013-05-23, 03:05:04,VALID,917.104,VALID,0,VALID,97.1757,VALID,0,VALID,20.756,VALID,92,VALID,0,
2013-05-23, 03:06:04,VALID,917.097,VALID,0,VALID,97.1452,VALID,0,VALID,20.756,VALID,92,VALID,0,
2013-05-23, 03:07:04,VALID,917.071,VALID,0,VALID,97.1757,VALID,0,VALID,20.7365,VALID,92,VALID,0,
2013-05-23, 03:08:04,VALID,917.063,VALID,0,VALID,97.1833,VALID,0,VALID,20.717,VALID,92,VALID,0,
2013-05-23, 03:09:04,VALID,917.052,VALID,0,VALID,97.1757,VALID,0,VALID,20.7381,VALID,92,VALID,0,
2013-05-23, 03:10:04,VALID,917.027,VALID,0,VALID,97.1528,VALID,0,VALID,20.6975,VALID,92,VALID,0,
2013-05-23, 03:11:04,VALID,917.008,VALID,0,VALID,97.1681,VALID,0,VALID,20.699,VALID,92,VALID,0,
2013-05-23, 03:12:04,VALID,917.012,VALID,0,VALID,97.1681,VALID,0,VALID,20.678,VALID,92,VALID,0,
2013-05-23, 03:13:04,VALID,917.003,VALID,0,VALID,97.1757,VALID,0,VALID,20.678,VALID,92,VALID,0,
2013-05-23, 03:14:04,VALID,917.006,VALID,0,VALID,97.1909,VALID,0,VALID,20.678,VALID,92,VALID,0,
2013-05-23, 03:15:04,VALID,916.98,VALID,0,VALID,97.1833,VALID,0,VALID,20.66,VALID,92,VALID,0,
2013-05-23, 03:16:04,VALID,916.971,VALID,0,VALID,97.1833,VALID,0,VALID,20.6585,VALID,92,VALID,0,
2013-05-23, 03:17:04,VALID,916.966,VALID,0,VALID,97.1833,VALID,0,VALID,20.6585,VALID,92,VALID,0,
2013-05-23, 03:18:04,VALID,916.961,VALID,0,VALID,97.1986,VALID,0,VALID,20.678,VALID,92,VALID,0,
2013-05-23, 03:19:04,VALID,916.941,VALID,0,VALID,97.1833,VALID,0,VALID,20.678,VALID,92,VALID,0,
2013-05-23, 03:20:04,VALID,916.916,VALID,0,VALID,97.1757,VALID,0,VALID,20.639,VALID,92,VALID,0,
2013-05-23, 03:21:04,VALID,916.917,VALID,0,VALID,97.1757,VALID,0,VALID,20.639,VALID,92,VALID,0,
2013-05-23, 03:22:04,VALID,916.87,VALID,0,VALID,97.1833,VALID,0,VALID,20.6194,VALID,92,VALID,0,
2013-05-23, 03:23:04,VALID,916.897,VALID,0,VALID,97.1986,VALID,0,VALID,20.6194,VALID,92,VALID,0,
2013-05-23, 03:24:04,VALID,916.871,VALID,0,VALID,97.1909,VALID,0,VALID,20.6194,VALID,92,VALID,0,
2013-05-23, 03:25:04,VALID,916.857,VALID,0,VALID,97.2214,VALID,0,VALID,20.5999,VALID,92,VALID,0,
2013-05-23, 03:26:04,VALID,916.841,VALID,0,VALID,97.2062,VALID,0,VALID,20.5999,VALID,92,VALID,0,
2013-05-23, 03:27:04,VALID,916.869,VALID,0,VALID,97.2138,VALID,0,VALID,20.5804,VALID,92,VALID,0,
2013-05-23, 03:28:04,VALID,916.84,VALID,0,VALID,97.1986,VALID,0,VALID,20.5609,VALID,92,VALID,0,
2013-05-23, 03:29:04,VALID,916.835,VALID,0,VALID,97.1986,VALID,0,VALID,20.5414,VALID,92,VALID,0,
2013-05-23, 03:30:04,VALID,916.898,VALID,0,VALID,97.2214,VALID,0,VALID,20.5804,VALID,92,VALID,0,
2013-05-23, 03:31:04,VALID,916.883,VALID,0,VALID,97.229,VALID,0.107441,VALID,20.5609,VALID,92,VALID,0,
2013-05-23, 03:32:04,VALID,916.887,VALID,0,VALID,97.2062,VALID,0,VALID,20.5414,VALID,92,VALID,0,
2013-05-23, 03:33:04,VALID,916.902,VALID,0,VALID,97.2062,VALID,0,VALID,20.5625,VALID,92,VALID,0,
2013-05-23, 03:34:04,VALID,916.902,VALID,0,VALID,97.1986,VALID,0,VALID,20.5414,VALID,92,VALID,0,
2013-05-23, 03:35:04,VALID,916.939,VALID,0,VALID,97.2138,VALID,0,VALID,20.5414,VALID,92,VALID,0,
2013-05-23, 03:36:04,VALID,916.912,VALID,0,VALID,97.2214,VALID,0,VALID,20.5414,VALID,92,VALID,0,
2013-05-23, 03:37:04,VALID,916.929,VALID,0,VALID,97.2138,VALID,0,VALID,20.5414,VALID,92,VALID,0,
2013-05-23, 03:38:04,VALID,916.927,VALID,0,VALID,97.2214,VALID,0,VALID,20.5219,VALID,92,VALID,0,
2013-05-23, 03:39:04,VALID,916.953,VALID,0,VALID,97.229,VALID,0,VALID,20.5024,VALID,92,VALID,0,
2013-05-23, 03:40:04,VALID,916.949,VALID,0,VALID,97.2443,VALID,0,VALID,20.5219,VALID,92,VALID,0,
2013-05-23, 03:41:04,VALID,916.951,VALID,0,VALID,97.229,VALID,0,VALID,20.5219,VALID,92,VALID,0,
2013-05-23, 03:42:04,VALID,916.965,VALID,0,VALID,97.2214,VALID,0,VALID,20.5414,VALID,92,VALID,0,
2013-05-23, 03:43:04,VALID,916.934,VALID,0,VALID,97.2138,VALID,0,VALID,20.5414,VALID,95,VALID,0,
2013-05-23, 03:44:04,VALID,916.904,VALID,0,VALID,97.2138,VALID,0,VALID,20.5414,VALID,95,VALID,0,
2013-05-23, 03:45:04,VALID,916.924,VALID,0,VALID,97.2443,VALID,0,VALID,20.5804,VALID,95,VALID,0,
2013-05-23, 03:46:04,VALID,916.874,VALID,0,VALID,97.2214,VALID,0,VALID,20.5804,VALID,95,VALID,0,
2013-05-23, 03:47:04,VALID,916.89,VALID,0,VALID,97.2214,VALID,0,VALID,20.5804,VALID,95,VALID,0,
2013-05-23, 03:48:04,VALID,916.895,VALID,0,VALID,97.2367,VALID,0,VALID,20.5804,VALID,95,VALID,0,
2013-05-23, 03:49:04,VALID,916.853,VALID,0,VALID,97.2214,VALID,0,VALID,20.621,VALID,95,VALID,0,
2013-05-23, 03:50:04,VALID,916.85,VALID,0,VALID,97.2367,VALID,0,VALID,20.5609,VALID,116,VALID,0,
2013-05-23, 03:51:04,VALID,916.834,VALID,0,VALID,97.229,VALID,0,VALID,20.5804,VALID,116,VALID,0,
2013-05-23, 03:52:04,VALID,916.798,VALID,0,VALID,97.2367,VALID,0,VALID,20.5609,VALID,116,VALID,0,
2013-05-23, 03:53:04,VALID,916.806,VALID,0,VALID,97.2214,VALID,0,VALID,20.5609,VALID,116,VALID,0,
2013-05-23, 03:54:04,VALID,916.791,VALID,0,VALID,97.229,VALID,0,VALID,20.5414,VALID,116,VALID,0,
2013-05-23, 03:55:04,VALID,916.803,VALID,0,VALID,97.2214,VALID,0,VALID,20.5414,VALID,116,VALID,0,
2013-05-23, 03:56:04,VALID,916.757,VALID,0,VALID,97.229,VALID,0,VALID,20.5609,VALID,116,VALID,0,
2013-05-23, 03:57:04,VALID,916.788,VALID,0,VALID,97.2367,VALID,0,VALID,20.5414,VALID,116,VALID,0,
2013-05-23, 03:58:04,VALID,916.755,VALID,0,VALID,97.2214,VALID,0,VALID,20.5414,VALID,116,VALID,0,
2013-05-23, 03:59:04,VALID,916.732,VALID,0,VALID,97.2367,VALID,0,VALID,20.5609,VALID,116,VALID,0,
2013-05-23, 04:00:04,VALID,916.727,VALID,0,VALID,97.2443,VALID,0,VALID,20.5609,VALID,116,VALID,0,
2013-05-23, 04:01:04,VALID,916.735,VALID,0,VALID,97.2367,VALID,0,VALID,20.5609,VALID,116,VALID,0,
2013-05-23, 04:02:04,VALID,916.742,VALID,0,VALID,97.2443,VALID,0,VALID,20.582,VALID,116,VALID,0,